owner,sensor,date,latitude,longitude,vertical_datum,direction_of_sea_water_velocity,sea_water_speed,upward_sea_water_velocity,qcFlag 
TABS,ioos:station:wmo:42050:1,2019-01-01T00:00:00Z,28.8425,-94.2433,2.0,244.3109571,24.2686485,-99999.0,'11111222,11111222,99999999' 
TABS,ioos:station:wmo:42050:1,2019-01-01T00:30:00Z,28.8425,-94.2433,2.0,238.5285798,24.21140434,-99999.0,'11111222,11111222,99999999' 
TABS,ioos:station:wmo:42050:1,2019-01-01T01:00:00Z,28.8425,-94.2433,2.0,240.4705413,24.04306345,-99999.0,'11111222,11111222,99999999' 
TABS,ioos:station:wmo:42050:1,2019-01-01T01:30:00Z,28.8425,-94.2433,2.0,239.3389558,23.66885084,-99999.0,'11111222,11111222,99999999' 
TABS,ioos:station:wmo:42050:1,2019-01-01T02:00:00Z,28.8425,-94.2433,2.0,236.9130771,21.06590848,-99999.0,'11111222,11111222,99999999' 
TABS,ioos:station:wmo:42050:1,2019-01-01T02:30:00Z,28.8425,-94.2433,2.0,224.5264782,22.26048068,-99999.0,'11111222,11111222,99999999' 
TABS,ioos:station:wmo:42050:1,2019-01-01T03:00:00Z,28.8425,-94.2433,2.0,237.2213804,13.59464968,-99999.0,'11111222,11111222,99999999' 
TABS,ioos:station:wmo:42050:1,2019-01-01T03:30:00Z,28.8425,-94.2433,2.0,240.3168708,13.73189353,-99999.0,'11111222,11111222,99999999' 
TABS,ioos:station:wmo:42050:1,2019-01-01T04:00:00Z,28.8425,-94.2433,2.0,224.371812,10.32437892,-99999.0,'11111222,11111222,99999999' 
TABS,ioos:station:wmo:42050:1,2019-01-01T04:30:00Z,28.8425,-94.2433,2.0,225.7921047,10.22574203,-99999.0,'11111222,11111222,99999999' 
TABS,ioos:station:wmo:42050:1,2019-01-01T05:00:00Z,28.8425,-94.2433,2.0,213.7856224,8.290006031,-99999.0,'11133222,11111222,99999999' 
TABS,ioos:station:wmo:42050:1,2019-01-01T05:30:00Z,28.8425,-94.2433,2.0,205.3548834,9.10729927,-99999.0,'11133222,11111222,99999999' 
TABS,ioos:station:wmo:42050:1,2019-01-01T06:00:00Z,28.8425,-94.2433,2.0,198.1462363,10.04984577,-99999.0,'11111222,11111222,99999999' 
TABS,ioos:station:wmo:42050:1,2019-01-01T06:30:00Z,28.8425,-94.2433,2.0,205.3166588,12.11341818,-99999.0,'11111222,11111222,99999999' 
TABS,ioos:station:wmo:42050:1,2019-01-01T07:00:00Z,28.8425,-94.2433,2.0,225.1406905,8.619657766,-99999.0,'11133222,11111222,99999999' 
TABS,ioos:station:wmo:42050:1,2019-01-01T07:30:00Z,28.8425,-94.2433,2.0,242.27636,14.38085533,-99999.0,'11111222,11111222,99999999' 
TABS,ioos:station:wmo:42050:1,2019-01-01T08:00:00Z,28.8425,-94.2433,2.0,251.9488055,18.39538257,-99999.0,'11111222,11111222,99999999' 
TABS,ioos:station:wmo:42050:1,2019-01-01T08:30:00Z,28.8425,-94.2433,2.0,265.7277702,23.89638676,-99999.0,'11111222,11111222,99999999' 
TABS,ioos:station:wmo:42050:1,2019-01-01T09:00:00Z,28.8425,-94.2433,2.0,264.3901078,24.24610897,-99999.0,'11111222,11111222,99999999' 
TABS,ioos:station:wmo:42050:1,2019-01-01T09:30:00Z,28.8425,-94.2433,2.0,262.4243227,25.41178073,-99999.0,'11111222,11111222,99999999' 
TABS,ioos:station:wmo:42050:1,2019-01-01T10:00:00Z,28.8425,-94.2433,2.0,262.1603341,23.6813112,-99999.0,'11111222,11111222,99999999' 
TABS,ioos:station:wmo:42050:1,2019-01-01T10:30:00Z,28.8425,-94.2433,2.0,258.88454,24.79510637,-99999.0,'11111222,11111222,99999999' 
TABS,ioos:station:wmo:42050:1,2019-01-01T11:00:00Z,28.8425,-94.2433,2.0,256.5619579,27.62631535,-99999.0,'11111222,11111222,99999999' 
TABS,ioos:station:wmo:42050:1,2019-01-01T11:30:00Z,28.8425,-94.2433,2.0,255.2447973,25.91454418,-99999.0,'11111222,11111222,99999999' 
TABS,ioos:station:wmo:42050:1,2019-01-01T12:00:00Z,28.8425,-94.2433,2.0,256.8541373,27.61359267,-99999.0,'11111222,11111222,99999999' 
TABS,ioos:station:wmo:42050:1,2019-01-01T12:30:00Z,28.8425,-94.2433,2.0,261.614138,32.36601304,-99999.0,'11111222,11111222,99999999' 
TABS,ioos:station:wmo:42050:1,2019-01-01T13:00:00Z,28.8425,-94.2433,2.0,261.1189407,37.89427529,-99999.0,'11111222,11111222,99999999' 
TABS,ioos:station:wmo:42050:1,2019-01-01T13:30:00Z,28.8425,-94.2433,2.0,262.4204898,34.1180656,-99999.0,'11111222,11111222,99999999' 
TABS,ioos:station:wmo:42050:1,2019-01-01T14:00:00Z,28.8425,-94.2433,2.0,263.508918,35.73907805,-99999.0,'11111222,11111222,99999999' 
TABS,ioos:station:wmo:42050:1,2019-01-01T14:30:00Z,28.8425,-94.2433,2.0,270.6829983,39.45279965,-99999.0,'11111222,11111222,99999999' 
TABS,ioos:station:wmo:42050:1,2019-01-01T15:00:00Z,28.8425,-94.2433,2.0,270.422785,31.20084774,-99999.0,'11111222,11111222,99999999' 
TABS,ioos:station:wmo:42050:1,2019-01-01T15:30:00Z,28.8425,-94.2433,2.0,267.7823433,33.08476991,-99999.0,'11111222,11111222,99999999' 
TABS,ioos:station:wmo:42050:1,2019-01-01T16:00:00Z,28.8425,-94.2433,2.0,272.4335579,27.79505891,-99999.0,'11111222,11111222,99999999' 
TABS,ioos:station:wmo:42050:1,2019-01-01T16:30:00Z,28.8425,-94.2433,2.0,272.0278921,33.07070305,-99999.0,'11111222,11111222,99999999' 
TABS,ioos:station:wmo:42050:1,2019-01-01T17:00:00Z,28.8425,-94.2433,2.0,279.7843511,25.18632168,-99999.0,'11111222,11111222,99999999' 
TABS,ioos:station:wmo:42050:1,2019-01-01T17:30:00Z,28.8425,-94.2433,2.0,268.4260703,20.75782744,-99999.0,'11111222,11111222,99999999' 
TABS,ioos:station:wmo:42050:1,2019-01-01T18:00:00Z,28.8425,-94.2433,2.0,267.8131807,21.7558383,-99999.0,'11111222,11111222,99999999' 
TABS,ioos:station:wmo:42050:1,2019-01-01T18:30:00Z,28.8425,-94.2433,2.0,258.2164031,23.50532067,-99999.0,'11111222,11111222,99999999' 
TABS,ioos:station:wmo:42050:1,2019-01-01T19:00:00Z,28.8425,-94.2433,2.0,254.2559198,24.58219884,-99999.0,'11111222,11111222,99999999' 
TABS,ioos:station:wmo:42050:1,2019-01-01T19:30:00Z,28.8425,-94.2433,2.0,258.9390928,18.921464,-99999.0,'11111222,11111222,99999999' 
TABS,ioos:station:wmo:42050:1,2019-01-01T20:00:00Z,28.8425,-94.2433,2.0,255.6025419,25.41823755,-99999.0,'11111222,11111222,99999999' 
TABS,ioos:station:wmo:42050:1,2019-01-01T20:30:00Z,28.8425,-94.2433,2.0,251.5711017,28.18538096,-99999.0,'11111222,11111222,99999999' 
TABS,ioos:station:wmo:42050:1,2019-01-01T21:00:00Z,28.8425,-94.2433,2.0,243.0998407,29.08726869,-99999.0,'11111222,11111222,99999999' 
TABS,ioos:station:wmo:42050:1,2019-01-01T21:30:00Z,28.8425,-94.2433,2.0,239.8485447,32.88987686,-99999.0,'11111222,11111222,99999999' 
TABS,ioos:station:wmo:42050:1,2019-01-01T22:00:00Z,28.8425,-94.2433,2.0,243.0229905,31.12686942,-99999.0,'11111222,11111222,99999999' 
TABS,ioos:station:wmo:42050:1,2019-01-01T22:30:00Z,28.8425,-94.2433,2.0,247.9262281,31.293731,-99999.0,'11111222,11111222,99999999' 
TABS,ioos:station:wmo:42050:1,2019-01-01T23:00:00Z,28.8425,-94.2433,2.0,243.9820632,30.89045322,-99999.0,'11111222,11111222,99999999' 
TABS,ioos:station:wmo:42050:1,2019-01-01T23:30:00Z,28.8425,-94.2433,2.0,249.3026598,31.40691644,-99999.0,'11111222,11111222,99999999' 
TABS,ioos:station:wmo:42050:1,2019-01-02T00:00:00Z,28.8425,-94.2433,2.0,243.1227195,28.75626019,-99999.0,'11111222,11111222,99999999' 
TABS,ioos:station:wmo:42050:1,2019-01-02T00:30:00Z,28.8425,-94.2433,2.0,242.8877319,30.4566331,-99999.0,'11111222,11111222,99999999' 
TABS,ioos:station:wmo:42050:1,2019-01-02T01:00:00Z,28.8425,-94.2433,2.0,246.489136,30.63293163,-99999.0,'11111222,11111222,99999999' 
TABS,ioos:station:wmo:42050:1,2019-01-02T01:30:00Z,28.8425,-94.2433,2.0,243.517587,27.78540984,-99999.0,'11111222,11111222,99999999' 
TABS,ioos:station:wmo:42050:1,2019-01-02T02:00:00Z,28.8425,-94.2433,2.0,241.0362231,27.46508511,-99999.0,'11111222,11111222,99999999' 
TABS,ioos:station:wmo:42050:1,2019-01-02T02:30:00Z,28.8425,-94.2433,2.0,240.4026126,25.95683532,-99999.0,'11111222,11111222,99999999' 
TABS,ioos:station:wmo:42050:1,2019-01-02T03:00:00Z,28.8425,-94.2433,2.0,240.6226052,25.88906333,-99999.0,'11111222,11111222,99999999' 
TABS,ioos:station:wmo:42050:1,2019-01-02T03:30:00Z,28.8425,-94.2433,2.0,249.5441322,26.01009419,-99999.0,'11111222,11111222,99999999' 
TABS,ioos:station:wmo:42050:1,2019-01-02T04:00:00Z,28.8425,-94.2433,2.0,245.5860087,25.01687431,-99999.0,'11111222,11111222,99999999' 
TABS,ioos:station:wmo:42050:1,2019-01-02T04:30:00Z,28.8425,-94.2433,2.0,245.0337236,25.80085657,-99999.0,'11111222,11111222,99999999' 
TABS,ioos:station:wmo:42050:1,2019-01-02T05:00:00Z,28.8425,-94.2433,2.0,244.5831059,27.88937074,-99999.0,'11111222,11111222,99999999' 
TABS,ioos:station:wmo:42050:1,2019-01-02T05:30:00Z,28.8425,-94.2433,2.0,240.949226,26.60740498,-99999.0,'11111222,11111222,99999999' 
TABS,ioos:station:wmo:42050:1,2019-01-02T06:00:00Z,28.8425,-94.2433,2.0,246.5591481,26.74735875,-99999.0,'11111222,11111222,99999999' 
TABS,ioos:station:wmo:42050:1,2019-01-02T06:30:00Z,28.8425,-94.2433,2.0,236.2982716,28.07892448,-99999.0,'11111222,11111222,99999999' 
TABS,ioos:station:wmo:42050:1,2019-01-02T07:00:00Z,28.8425,-94.2433,2.0,243.1618321,31.94035692,-99999.0,'11111222,11111222,99999999' 
TABS,ioos:station:wmo:42050:1,2019-01-02T07:30:00Z,28.8425,-94.2433,2.0,242.2579349,39.63595464,-99999.0,'11111222,11111222,99999999' 
TABS,ioos:station:wmo:42050:1,2019-01-02T08:00:00Z,28.8425,-94.2433,2.0,249.5349537,36.69595754,-99999.0,'11111222,11111222,99999999' 
TABS,ioos:station:wmo:42050:1,2019-01-02T08:30:00Z,28.8425,-94.2433,2.0,247.0389486,37.631435,-99999.0,'11111222,11111222,99999999' 
TABS,ioos:station:wmo:42050:1,2019-01-02T09:00:00Z,28.8425,-94.2433,2.0,246.8535491,40.11938434,-99999.0,'11111222,11111222,99999999' 
TABS,ioos:station:wmo:42050:1,2019-01-02T09:30:00Z,28.8425,-94.2433,2.0,248.6742632,47.15895885,-99999.0,'11111222,11111222,99999999' 
TABS,ioos:station:wmo:42050:1,2019-01-02T10:00:00Z,28.8425,-94.2433,2.0,244.031886,43.75775588,-99999.0,'11111222,11111222,99999999' 
TABS,ioos:station:wmo:42050:1,2019-01-02T10:30:00Z,28.8425,-94.2433,2.0,248.0583047,44.10463128,-99999.0,'11111222,11111222,99999999' 
TABS,ioos:station:wmo:42050:1,2019-01-02T11:00:00Z,28.8425,-94.2433,2.0,246.6712945,45.2273037,-99999.0,'11111222,11111222,99999999' 
TABS,ioos:station:wmo:42050:1,2019-01-02T11:30:00Z,28.8425,-94.2433,2.0,247.9297915,44.39281473,-99999.0,'11111222,11111222,99999999' 
TABS,ioos:station:wmo:42050:1,2019-01-02T12:00:00Z,28.8425,-94.2433,2.0,255.2828721,40.22979617,-99999.0,'11111222,11111222,99999999' 
TABS,ioos:station:wmo:42050:1,2019-01-02T12:30:00Z,28.8425,-94.2433,2.0,255.2552342,35.71609861,-99999.0,'11111222,11111222,99999999' 
TABS,ioos:station:wmo:42050:1,2019-01-02T13:00:00Z,28.8425,-94.2433,2.0,269.132521,35.02401034,-99999.0,'11111222,11111222,99999999' 
TABS,ioos:station:wmo:42050:1,2019-01-02T13:30:00Z,28.8425,-94.2433,2.0,269.5456333,35.34110921,-99999.0,'11111222,11111222,99999999' 
TABS,ioos:station:wmo:42050:1,2019-01-02T14:00:00Z,28.8425,-94.2433,2.0,267.5951091,38.61399746,-99999.0,'11111222,11111222,99999999' 
TABS,ioos:station:wmo:42050:1,2019-01-02T14:30:00Z,28.8425,-94.2433,2.0,271.5355647,38.07366544,-99999.0,'11111222,11111222,99999999' 
TABS,ioos:station:wmo:42050:1,2019-01-02T15:00:00Z,28.8425,-94.2433,2.0,276.1500771,34.53875504,-99999.0,'11111222,11111222,99999999' 
TABS,ioos:station:wmo:42050:1,2019-01-02T15:30:00Z,28.8425,-94.2433,2.0,274.1303483,27.63175166,-99999.0,'11111222,11111222,99999999' 
TABS,ioos:station:wmo:42050:1,2019-01-02T16:00:00Z,28.8425,-94.2433,2.0,276.1419791,31.21918,-99999.0,'11111222,11111222,99999999' 
TABS,ioos:station:wmo:42050:1,2019-01-02T16:30:00Z,28.8425,-94.2433,2.0,275.8685885,30.02735087,-99999.0,'11111222,11111222,99999999' 
TABS,ioos:station:wmo:42050:1,2019-01-02T17:00:00Z,28.8425,-94.2433,2.0,283.2491464,27.88210358,-99999.0,'11111222,11111222,99999999' 
TABS,ioos:station:wmo:42050:1,2019-01-02T17:30:00Z,28.8425,-94.2433,2.0,289.3634148,28.89435931,-99999.0,'11111222,11111222,99999999' 
TABS,ioos:station:wmo:42050:1,2019-01-02T18:00:00Z,28.8425,-94.2433,2.0,286.3147382,26.66361191,-99999.0,'11111222,11111222,99999999' 
TABS,ioos:station:wmo:42050:1,2019-01-02T18:30:00Z,28.8425,-94.2433,2.0,275.5693663,25.76159157,-99999.0,'11111222,11111222,99999999' 
TABS,ioos:station:wmo:42050:1,2019-01-02T19:00:00Z,28.8425,-94.2433,2.0,272.3371027,18.88570359,-99999.0,'11111222,11111222,99999999' 
TABS,ioos:station:wmo:42050:1,2019-01-02T19:30:00Z,28.8425,-94.2433,2.0,268.0584933,24.50406089,-99999.0,'11111222,11111222,99999999' 
TABS,ioos:station:wmo:42050:1,2019-01-02T20:00:00Z,28.8425,-94.2433,2.0,270.0293874,19.78000253,-99999.0,'11111222,11111222,99999999' 
TABS,ioos:station:wmo:42050:1,2019-01-02T20:30:00Z,28.8425,-94.2433,2.0,252.1370783,27.22224458,-99999.0,'11111222,11111222,99999999' 
TABS,ioos:station:wmo:42050:1,2019-01-02T21:00:00Z,28.8425,-94.2433,2.0,268.3348588,26.16104165,-99999.0,'11111222,11111222,99999999' 
TABS,ioos:station:wmo:42050:1,2019-01-02T21:30:00Z,28.8425,-94.2433,2.0,260.6171436,25.94711737,-99999.0,'11111222,11111222,99999999' 
TABS,ioos:station:wmo:42050:1,2019-01-02T22:00:00Z,28.8425,-94.2433,2.0,265.5265785,28.97826254,-99999.0,'11111222,11111222,99999999' 
TABS,ioos:station:wmo:42050:1,2019-01-02T22:30:00Z,28.8425,-94.2433,2.0,251.4761176,24.55195308,-99999.0,'11111222,11111222,99999999' 
TABS,ioos:station:wmo:42050:1,2019-01-02T23:00:00Z,28.8425,-94.2433,2.0,250.1277179,24.21168726,-99999.0,'11111222,11111222,99999999' 
TABS,ioos:station:wmo:42050:1,2019-01-02T23:30:00Z,28.8425,-94.2433,2.0,264.076323,28.68313965,-99999.0,'11111222,11111222,99999999' 
TABS,ioos:station:wmo:42050:1,2019-01-03T00:00:00Z,28.8425,-94.2433,2.0,257.1471566,24.77059951,-99999.0,'11111222,11111222,99999999' 
TABS,ioos:station:wmo:42050:1,2019-01-03T00:30:00Z,28.8425,-94.2433,2.0,266.7148138,20.59383403,-99999.0,'11111222,11111222,99999999' 
TABS,ioos:station:wmo:42050:1,2019-01-03T01:00:00Z,28.8425,-94.2433,2.0,257.4903089,28.67061562,-99999.0,'11111222,11111222,99999999' 
TABS,ioos:station:wmo:42050:1,2019-01-03T01:30:00Z,28.8425,-94.2433,2.0,254.6187912,27.18360167,-99999.0,'11111222,11111222,99999999' 
TABS,ioos:station:wmo:42050:1,2019-01-03T02:00:00Z,28.8425,-94.2433,2.0,257.5785221,25.38416239,-99999.0,'11111222,11111222,99999999' 
TABS,ioos:station:wmo:42050:1,2019-01-03T02:30:00Z,28.8425,-94.2433,2.0,255.4136693,25.53290034,-99999.0,'11111222,11111222,99999999' 
TABS,ioos:station:wmo:42050:1,2019-01-03T03:00:00Z,28.8425,-94.2433,2.0,254.6156665,26.91434747,-99999.0,'11111222,11111222,99999999' 
TABS,ioos:station:wmo:42050:1,2019-01-03T03:30:00Z,28.8425,-94.2433,2.0,253.1723303,34.7165004,-99999.0,'11111222,11111222,99999999' 
TABS,ioos:station:wmo:42050:1,2019-01-03T04:00:00Z,28.8425,-94.2433,2.0,258.0396693,31.46297507,-99999.0,'11111222,11111222,99999999' 
TABS,ioos:station:wmo:42050:1,2019-01-03T04:30:00Z,28.8425,-94.2433,2.0,263.5675882,34.45688901,-99999.0,'11111222,11111222,99999999' 
TABS,ioos:station:wmo:42050:1,2019-01-03T05:00:00Z,28.8425,-94.2433,2.0,261.5217578,39.61285145,-99999.0,'11111222,11111222,99999999' 
TABS,ioos:station:wmo:42050:1,2019-01-03T05:30:00Z,28.8425,-94.2433,2.0,266.0646318,34.68175889,-99999.0,'11111222,11111222,99999999' 
TABS,ioos:station:wmo:42050:1,2019-01-03T06:00:00Z,28.8425,-94.2433,2.0,271.2336666,33.91785665,-99999.0,'11111222,11111222,99999999' 
TABS,ioos:station:wmo:42050:1,2019-01-03T06:30:00Z,28.8425,-94.2433,2.0,262.5584352,37.98993683,-99999.0,'11111222,11111222,99999999' 
TABS,ioos:station:wmo:42050:1,2019-01-03T07:00:00Z,28.8425,-94.2433,2.0,263.922307,35.13747287,-99999.0,'11111222,11111222,99999999' 
TABS,ioos:station:wmo:42050:1,2019-01-03T07:30:00Z,28.8425,-94.2433,2.0,252.2917137,40.37288694,-99999.0,'11111222,11111222,99999999' 
TABS,ioos:station:wmo:42050:1,2019-01-03T08:00:00Z,28.8425,-94.2433,2.0,260.6006908,46.04818455,-99999.0,'11111222,11111222,99999999' 
TABS,ioos:station:wmo:42050:1,2019-01-03T08:30:00Z,28.8425,-94.2433,2.0,258.2245685,41.55445584,-99999.0,'11111222,11111222,99999999' 
TABS,ioos:station:wmo:42050:1,2019-01-03T09:00:00Z,28.8425,-94.2433,2.0,259.8710275,41.2833768,-99999.0,'11111222,11111222,99999999' 
TABS,ioos:station:wmo:42050:1,2019-01-03T09:30:00Z,28.8425,-94.2433,2.0,260.4042192,42.4742369,-99999.0,'11111222,11111222,99999999' 
TABS,ioos:station:wmo:42050:1,2019-01-03T10:00:00Z,28.8425,-94.2433,2.0,258.7350468,39.62331637,-99999.0,'11111222,11111222,99999999' 
TABS,ioos:station:wmo:42050:1,2019-01-03T10:30:00Z,28.8425,-94.2433,2.0,260.5603982,44.81681158,-99999.0,'11111222,11111222,99999999' 
TABS,ioos:station:wmo:42050:1,2019-01-03T11:00:00Z,28.8425,-94.2433,2.0,261.6742214,50.62348269,-99999.0,'11111222,11111222,99999999' 
TABS,ioos:station:wmo:42050:1,2019-01-03T11:30:00Z,28.8425,-94.2433,2.0,259.5341806,42.44610347,-99999.0,'11111222,11111222,99999999' 
TABS,ioos:station:wmo:42050:1,2019-01-03T12:00:00Z,28.8425,-94.2433,2.0,257.564579,41.74940718,-99999.0,'11111222,11111222,99999999' 
TABS,ioos:station:wmo:42050:1,2019-01-03T12:30:00Z,28.8425,-94.2433,2.0,263.4170551,36.81267852,-99999.0,'11111222,11111222,99999999' 
TABS,ioos:station:wmo:42050:1,2019-01-03T13:00:00Z,28.8425,-94.2433,2.0,261.959688,41.32619992,-99999.0,'11111222,11111222,99999999' 
TABS,ioos:station:wmo:42050:1,2019-01-03T13:30:00Z,28.8425,-94.2433,2.0,269.816796,40.75020736,-99999.0,'11111222,11111222,99999999' 
TABS,ioos:station:wmo:42050:1,2019-01-03T14:00:00Z,28.8425,-94.2433,2.0,265.4203904,38.95434507,-99999.0,'11111222,11111222,99999999' 
TABS,ioos:station:wmo:42050:1,2019-01-03T14:30:00Z,28.8425,-94.2433,2.0,275.5495394,39.19367551,-99999.0,'11111222,11111222,99999999' 
TABS,ioos:station:wmo:42050:1,2019-01-03T15:00:00Z,28.8425,-94.2433,2.0,277.0127449,44.15024915,-99999.0,'11111222,11111222,99999999' 
TABS,ioos:station:wmo:42050:1,2019-01-03T15:30:00Z,28.8425,-94.2433,2.0,274.8184475,42.86145238,-99999.0,'11111222,11111222,99999999' 
TABS,ioos:station:wmo:42050:1,2019-01-03T16:00:00Z,28.8425,-94.2433,2.0,274.3521524,37.42790403,-99999.0,'11111222,11111222,99999999' 
TABS,ioos:station:wmo:42050:1,2019-01-03T16:30:00Z,28.8425,-94.2433,2.0,283.0597694,41.11333847,-99999.0,'11111222,11111222,99999999' 
TABS,ioos:station:wmo:42050:1,2019-01-03T17:00:00Z,28.8425,-94.2433,2.0,282.5165449,34.37697049,-99999.0,'11111222,11111222,99999999' 
TABS,ioos:station:wmo:42050:1,2019-01-03T17:30:00Z,28.8425,-94.2433,2.0,264.5723221,24.95185765,-99999.0,'11111222,11111222,99999999' 
TABS,ioos:station:wmo:42050:1,2019-01-03T18:00:00Z,28.8425,-94.2433,2.0,247.4790661,15.53463871,-99999.0,'11111222,11111222,99999999' 
TABS,ioos:station:wmo:42050:1,2019-01-03T18:30:00Z,28.8425,-94.2433,2.0,264.4063446,16.51864704,-99999.0,'11111222,11111222,99999999' 
TABS,ioos:station:wmo:42050:1,2019-01-03T19:00:00Z,28.8425,-94.2433,2.0,259.0174243,21.94183219,-99999.0,'11111222,11111222,99999999' 
TABS,ioos:station:wmo:42050:1,2019-01-03T19:30:00Z,28.8425,-94.2433,2.0,248.2792381,19.69858117,-99999.0,'11111222,11111222,99999999' 
TABS,ioos:station:wmo:42050:1,2019-01-03T20:00:00Z,28.8425,-94.2433,2.0,252.6845633,16.66522427,-99999.0,'11111222,11111222,99999999' 
TABS,ioos:station:wmo:42050:1,2019-01-03T20:30:00Z,28.8425,-94.2433,2.0,252.3229279,20.5502798,-99999.0,'11111222,11111222,99999999' 
TABS,ioos:station:wmo:42050:1,2019-01-03T21:00:00Z,28.8425,-94.2433,2.0,248.3823657,16.17786142,-99999.0,'11111222,11111222,99999999' 
TABS,ioos:station:wmo:42050:1,2019-01-03T21:30:00Z,28.8425,-94.2433,2.0,245.3604724,15.30334931,-99999.0,'11111222,11111222,99999999' 
TABS,ioos:station:wmo:42050:1,2019-01-03T22:00:00Z,28.8425,-94.2433,2.0,221.3606135,10.47215355,-99999.0,'11111222,11111222,99999999' 
TABS,ioos:station:wmo:42050:1,2019-01-03T22:30:00Z,28.8425,-94.2433,2.0,237.5188175,13.66808326,-99999.0,'11111222,11111222,99999999' 
TABS,ioos:station:wmo:42050:1,2019-01-03T23:00:00Z,28.8425,-94.2433,2.0,244.7386559,13.75538077,-99999.0,'11111222,11111222,99999999' 
TABS,ioos:station:wmo:42050:1,2019-01-03T23:30:00Z,28.8425,-94.2433,2.0,240.6941029,13.74965454,-99999.0,'11111222,11111222,99999999' 
TABS,ioos:station:wmo:42050:1,2019-01-04T00:00:00Z,28.8425,-94.2433,2.0,221.909156,9.311997637,-99999.0,'11133222,11111222,99999999' 
TABS,ioos:station:wmo:42050:1,2019-01-04T00:30:00Z,28.8425,-94.2433,2.0,211.0544768,10.79756454,-99999.0,'11111222,11111222,99999999' 
TABS,ioos:station:wmo:42050:1,2019-01-04T01:00:00Z,28.8425,-94.2433,2.0,222.9783241,8.419809974,-99999.0,'11133222,11111222,99999999' 
TABS,ioos:station:wmo:42050:1,2019-01-04T01:30:00Z,28.8425,-94.2433,2.0,206.3723275,9.319983906,-99999.0,'11133222,11111222,99999999' 
TABS,ioos:station:wmo:42050:1,2019-01-04T02:00:00Z,28.8425,-94.2433,2.0,201.1035,8.693043196,-99999.0,'11133222,11111222,99999999' 
TABS,ioos:station:wmo:42050:1,2019-01-04T02:30:00Z,28.8425,-94.2433,2.0,178.4008189,6.09237228,-99999.0,'11133222,11111222,99999999' 
TABS,ioos:station:wmo:42050:1,2019-01-04T03:00:00Z,28.8425,-94.2433,2.0,199.278991,7.511224933,-99999.0,'11133222,11111222,99999999' 
TABS,ioos:station:wmo:42050:1,2019-01-04T03:30:00Z,28.8425,-94.2433,2.0,226.4225586,7.688621463,-99999.0,'11133222,11111222,99999999' 
TABS,ioos:station:wmo:42050:1,2019-01-04T04:00:00Z,28.8425,-94.2433,2.0,228.8392717,6.335755677,-99999.0,'11133222,11111222,99999999' 
TABS,ioos:station:wmo:42050:1,2019-01-04T04:30:00Z,28.8425,-94.2433,2.0,205.6344845,3.305344158,-99999.0,'11133222,11111222,99999999' 
TABS,ioos:station:wmo:42050:1,2019-01-04T05:00:00Z,28.8425,-94.2433,2.0,213.5715619,4.03267901,-99999.0,'11133222,11111222,99999999' 
TABS,ioos:station:wmo:42050:1,2019-01-04T05:30:00Z,28.8425,-94.2433,2.0,292.7707466,3.513858278,-99999.0,'11133222,11111222,99999999' 
TABS,ioos:station:wmo:42050:1,2019-01-04T06:00:00Z,28.8425,-94.2433,2.0,234.2617508,2.328454423,-99999.0,'11133222,11111222,99999999' 
TABS,ioos:station:wmo:42050:1,2019-01-04T06:30:00Z,28.8425,-94.2433,2.0,94.47211961,1.795466513,-99999.0,'11133222,11111222,99999999' 
TABS,ioos:station:wmo:42050:1,2019-01-04T07:00:00Z,28.8425,-94.2433,2.0,278.7978111,0.85,-99999.0,'11133222,11111222,99999999' 
TABS,ioos:station:wmo:42050:1,2019-01-04T07:30:00Z,28.8425,-94.2433,2.0,167.2927058,1.04560987,-99999.0,'11133222,11111222,99999999' 
TABS,ioos:station:wmo:42050:1,2019-01-04T08:00:00Z,28.8425,-94.2433,2.0,167.8799806,3.191128327,-99999.0,'11133222,11111222,99999999' 
TABS,ioos:station:wmo:42050:1,2019-01-04T08:30:00Z,28.8425,-94.2433,2.0,107.0842184,4.561271752,-99999.0,'11133222,11111222,99999999' 
TABS,ioos:station:wmo:42050:1,2019-01-04T09:00:00Z,28.8425,-94.2433,2.0,136.0049784,4.031128874,-99999.0,'11133222,11111222,99999999' 
TABS,ioos:station:wmo:42050:1,2019-01-04T09:30:00Z,28.8425,-94.2433,2.0,165.9363471,20.41180051,-99999.0,'11111222,11111222,99999999' 
TABS,ioos:station:wmo:42050:1,2019-01-04T10:00:00Z,28.8425,-94.2433,2.0,172.2800336,18.76002399,-99999.0,'11111222,11111222,99999999' 
TABS,ioos:station:wmo:42050:1,2019-01-04T10:30:00Z,28.8425,-94.2433,2.0,173.3284276,15.666078,-99999.0,'11111222,11111222,99999999' 
TABS,ioos:station:wmo:42050:1,2019-01-04T11:00:00Z,28.8425,-94.2433,2.0,166.1368975,15.23373231,-99999.0,'11111222,11111222,99999999' 
TABS,ioos:station:wmo:42050:1,2019-01-04T11:30:00Z,28.8425,-94.2433,2.0,167.6499396,14.58755977,-99999.0,'11111222,11111222,99999999' 
TABS,ioos:station:wmo:42050:1,2019-01-04T12:00:00Z,28.8425,-94.2433,2.0,168.8196793,12.12000825,-99999.0,'11111222,11111222,99999999' 
TABS,ioos:station:wmo:42050:1,2019-01-04T12:30:00Z,28.8425,-94.2433,2.0,165.2996107,9.418290715,-99999.0,'11133222,11111222,99999999' 
TABS,ioos:station:wmo:42050:1,2019-01-04T13:00:00Z,28.8425,-94.2433,2.0,156.934951,12.37960419,-99999.0,'11111222,11111222,99999999' 
TABS,ioos:station:wmo:42050:1,2019-01-04T13:30:00Z,28.8425,-94.2433,2.0,152.225853,12.08192865,-99999.0,'11111222,11111222,99999999' 
TABS,ioos:station:wmo:42050:1,2019-01-04T14:00:00Z,28.8425,-94.2433,2.0,128.0797654,9.56613297,-99999.0,'11133222,11111222,99999999' 
TABS,ioos:station:wmo:42050:1,2019-01-04T14:30:00Z,28.8425,-94.2433,2.0,137.7947861,8.990951006,-99999.0,'11133222,11111222,99999999' 
TABS,ioos:station:wmo:42050:1,2019-01-04T15:00:00Z,28.8425,-94.2433,2.0,105.2706539,9.681843833,-99999.0,'11133222,11111222,99999999' 
TABS,ioos:station:wmo:42050:1,2019-01-04T15:30:00Z,28.8425,-94.2433,2.0,113.8522616,8.976692041,-99999.0,'11133222,11111222,99999999' 
TABS,ioos:station:wmo:42050:1,2019-01-04T16:00:00Z,28.8425,-94.2433,2.0,100.4019509,10.02475436,-99999.0,'11111222,11111222,99999999' 